JZA7991 CYDF-CYUL

Flight info

Callsign JZA7991
Flight time 1h 54m
Altitude 36000
Route FROSS DCT USBAM DCT MIILS DCT KEBIG ROCKT3
Aircraft CRJ9/M-SDFGIRWY/S

Departure

Time 2026-04-23 11:35
Airport Deer Lake Airport (CYDF)

Arrival

Time 2026-04-23 13:30
Airport Montreal / Pierre Elliott Trudeau International Airport (CYUL)
Time Latitude Longitude Altitude Speed Heading
2026-04-23 11:21 49.21017 -57.39758 56 ft 0 kts 358°
2026-04-23 11:25 49.21016 -57.39758 56 ft 0 kts 358°
2026-04-23 11:25 49.21014 -57.39757 53 ft 0 kts 344°
2026-04-23 11:26 49.21013 -57.39757 53 ft 0 kts 330°
2026-04-23 11:26 49.21010 -57.39754 52 ft 1 kts 329°
2026-04-23 11:26 49.21006 -57.39751 51 ft 1 kts 326°
2026-04-23 11:26 49.21002 -57.39747 51 ft 1 kts 326°
2026-04-23 11:27 49.20999 -57.39743 51 ft 1 kts 326°
2026-04-23 11:27 49.20995 -57.39740 51 ft 1 kts 326°
2026-04-23 11:27 49.20992 -57.39736 53 ft 1 kts 326°
2026-04-23 11:27 49.20988 -57.39733 54 ft 1 kts 329°
2026-04-23 11:28 49.20985 -57.39730 54 ft 1 kts 336°
2026-04-23 11:28 49.20981 -57.39727 55 ft 1 kts 346°
2026-04-23 11:28 49.20976 -57.39726 54 ft 1 kts
2026-04-23 11:28 49.20972 -57.39727 55 ft 1 kts 19°
2026-04-23 11:29 49.20968 -57.39730 49 ft 1 kts 40°
2026-04-23 11:29 49.20968 -57.39731 49 ft 0 kts 45°
2026-04-23 11:30 49.20983 -57.39705 54 ft 6 kts 49°
2026-04-23 11:30 49.21026 -57.39636 56 ft 12 kts 43°
2026-04-23 11:31 49.21084 -57.39540 56 ft 13 kts 47°
2026-04-23 11:31 49.21110 -57.39424 56 ft 13 kts 120°
2026-04-23 11:31 49.21045 -57.39318 55 ft 13 kts 128°
2026-04-23 11:31 49.21079 -57.39184 52 ft 17 kts 49°
2026-04-23 11:32 49.21154 -57.39064 52 ft 20 kts 45°
2026-04-23 11:32 49.21260 -57.38894 46 ft 24 kts 46°
2026-04-23 11:32 49.21376 -57.38710 49 ft 25 kts 45°
2026-04-23 11:32 49.21494 -57.38520 53 ft 25 kts 46°
2026-04-23 11:33 49.21588 -57.38357 54 ft 18 kts 43°
2026-04-23 11:33 49.21669 -57.38301 53 ft 9 kts 60°
2026-04-23 11:33 49.21655 -57.38259 53 ft 2 kts 185°
2026-04-23 11:33 49.21641 -57.38273 54 ft 4 kts 232°
2026-04-23 11:34 49.21620 -57.38318 54 ft 6 kts 226°
2026-04-23 11:34 49.21618 -57.38321 54 ft 0 kts 225°
2026-04-23 11:35 49.21555 -57.38422 53 ft 46 kts 226°
2026-04-23 11:35 49.21170 -57.39037 51 ft 113 kts 226°
2026-04-23 11:35 49.20510 -57.40099 139 ft 156 kts 226°
2026-04-23 11:35 49.19725 -57.41335 787 ft 161 kts 225°
2026-04-23 11:36 49.18945 -57.42401 1985 ft 144 kts 224°
2026-04-23 11:36 49.18143 -57.43391 2680 ft 149 kts 226°
2026-04-23 11:36 49.17337 -57.44384 3396 ft 150 kts 227°
2026-04-23 11:36 49.16506 -57.45375 4048 ft 153 kts 227°
2026-04-23 11:37 49.15650 -57.46384 4670 ft 158 kts 227°
2026-04-23 11:37 49.14781 -57.47410 5248 ft 162 kts 226°
2026-04-23 11:37 49.14039 -57.48675 5726 ft 162 kts 257°
2026-04-23 11:37 49.13904 -57.50381 6254 ft 165 kts 264°
2026-04-23 11:38 49.13652 -57.52123 6793 ft 171 kts 258°
2026-04-23 11:38 49.13277 -57.53959 7201 ft 192 kts 254°
2026-04-23 11:38 49.12801 -57.55966 7727 ft 208 kts 252°
2026-04-23 11:38 49.12271 -57.58069 8310 ft 221 kts 250°
2026-04-23 11:39 49.11694 -57.60360 8669 ft 240 kts 250°
2026-04-23 11:39 49.11084 -57.62830 9112 ft 256 kts 249°
2026-04-23 11:39 49.10452 -57.65407 9605 ft 270 kts 249°
2026-04-23 11:39 49.09791 -57.68124 10253 ft 275 kts 248°
2026-04-23 11:40 49.09101 -57.70937 10666 ft 291 kts 247°
2026-04-23 11:40 49.08377 -57.73902 11143 ft 303 kts 247°
2026-04-23 11:40 49.07637 -57.76935 11854 ft 307 kts 247°
2026-04-23 11:40 49.06886 -57.79975 12689 ft 307 kts 247°
2026-04-23 11:41 49.06130 -57.83046 13382 ft 312 kts 246°
2026-04-23 11:41 49.05360 -57.86162 14025 ft 316 kts 246°
2026-04-23 11:41 49.04579 -57.89317 14641 ft 320 kts 246°
2026-04-23 11:41 49.03788 -57.92513 15255 ft 324 kts 246°
2026-04-23 11:42 49.02995 -57.95707 15865 ft 329 kts 246°
2026-04-23 11:42 49.02180 -57.98987 16452 ft 333 kts 246°
2026-04-23 11:42 49.01354 -58.02303 17053 ft 337 kts 245°
2026-04-23 11:42 49.00515 -58.05662 17638 ft 341 kts 245°
2026-04-23 11:43 48.99668 -58.09053 18204 ft 345 kts 245°
2026-04-23 11:43 48.98809 -58.12489 18672 ft 349 kts 245°
2026-04-23 11:43 48.97937 -58.15964 19137 ft 354 kts 245°
2026-04-23 11:43 48.97051 -58.19483 19596 ft 358 kts 244°
2026-04-23 11:44 48.96456 -58.21837 19904 ft 361 kts 244°
2026-04-23 11:44 48.95257 -58.26595 20500 ft 367 kts 244°
2026-04-23 11:44 48.94338 -58.30233 20941 ft 371 kts 243°
2026-04-23 11:44 48.93408 -58.33909 21399 ft 375 kts 243°
2026-04-23 11:45 48.92467 -58.37627 21831 ft 379 kts 243°
2026-04-23 11:45 48.91836 -58.40110 22108 ft 381 kts 242°
2026-04-23 11:45 48.90878 -58.43885 22534 ft 385 kts 242°
2026-04-23 11:45 48.89905 -58.47710 22906 ft 390 kts 242°
2026-04-23 11:46 48.88922 -58.51568 23279 ft 394 kts 242°
2026-04-23 11:46 48.87931 -58.55456 23659 ft 396 kts 242°
2026-04-23 11:46 48.86607 -58.60637 24093 ft 400 kts 241°
2026-04-23 11:46 48.85920 -58.63304 24323 ft 403 kts 242°
2026-04-23 11:47 48.84929 -58.67185 24648 ft 405 kts 241°
2026-04-23 11:47 48.83881 -58.71224 25148 ft 403 kts 242°
2026-04-23 11:47 48.82843 -58.75191 25472 ft 407 kts 242°
2026-04-23 11:47 48.81803 -58.79208 25790 ft 410 kts 242°
2026-04-23 11:48 48.80759 -58.83260 26080 ft 414 kts 242°
2026-04-23 11:48 48.79710 -58.87344 26385 ft 417 kts 242°
2026-04-23 11:48 48.78650 -58.91451 26683 ft 420 kts 242°
2026-04-23 11:48 48.77578 -58.95589 26976 ft 423 kts 242°
2026-04-23 11:49 48.76494 -58.99749 27260 ft 426 kts 241°
2026-04-23 11:49 48.75401 -59.03941 27546 ft 429 kts 241°
2026-04-23 11:49 48.74299 -59.08158 27844 ft 432 kts 241°
2026-04-23 11:49 48.73206 -59.12346 28110 ft 435 kts 241°
2026-04-23 11:50 48.72086 -59.16601 28540 ft 434 kts 242°
2026-04-23 11:50 48.70965 -59.20866 28814 ft 437 kts 242°
2026-04-23 11:50 48.69846 -59.25162 29079 ft 440 kts 242°
2026-04-23 11:50 48.68719 -59.29482 29337 ft 443 kts 242°
2026-04-23 11:51 48.67575 -59.33827 29583 ft 445 kts 241°
2026-04-23 11:51 48.66421 -59.38189 29838 ft 448 kts 241°
2026-04-23 11:51 48.65255 -59.42576 30066 ft 451 kts 241°
2026-04-23 11:51 48.64087 -59.46974 30296 ft 452 kts 241°
2026-04-23 11:52 48.64076 -59.47015 30296 ft 452 kts 241°
2026-04-23 11:52 48.63383 -59.49620 30439 ft 453 kts 241°
2026-04-23 11:53 48.62204 -59.54041 30657 ft 455 kts 241°
2026-04-23 11:53 48.61017 -59.58488 30899 ft 457 kts 241°
2026-04-23 11:53 48.59821 -59.62906 31279 ft 453 kts 242°
2026-04-23 11:53 48.58630 -59.67327 31494 ft 455 kts 242°
2026-04-23 11:54 48.57455 -59.71715 31667 ft 457 kts 242°
2026-04-23 11:54 48.56262 -59.76163 31942 ft 457 kts 242°
2026-04-23 11:54 48.55067 -59.80599 32209 ft 456 kts 242°
2026-04-23 11:54 48.53871 -59.85033 32467 ft 456 kts 242°
2026-04-23 11:55 48.52674 -59.89465 32734 ft 456 kts 242°
2026-04-23 11:55 48.51480 -59.93897 32984 ft 456 kts 242°
2026-04-23 11:55 48.50283 -59.98321 33236 ft 455 kts 242°
2026-04-23 11:55 48.49081 -60.02735 33495 ft 455 kts 242°
2026-04-23 11:56 48.47884 -60.07138 33883 ft 452 kts 243°
2026-04-23 11:56 48.46716 -60.11459 34089 ft 452 kts 243°
2026-04-23 11:56 48.45523 -60.15832 34304 ft 451 kts 243°
2026-04-23 11:56 48.44328 -60.20195 34516 ft 450 kts 243°
2026-04-23 11:57 48.43134 -60.24552 34715 ft 450 kts 243°
2026-04-23 11:57 48.41937 -60.28913 34895 ft 450 kts 243°
2026-04-23 11:57 48.40739 -60.33270 35084 ft 450 kts 243°
2026-04-23 11:57 48.39541 -60.37619 35279 ft 450 kts 243°
2026-04-23 11:58 48.38344 -60.41971 35470 ft 450 kts 243°
2026-04-23 11:58 48.37170 -60.46332 35653 ft 450 kts 244°
2026-04-23 11:58 48.35990 -60.50689 35803 ft 451 kts 244°
2026-04-23 11:59 48.33564 -60.59393 35887 ft 458 kts 244°
2026-04-23 11:59 48.31069 -60.68310 35913 ft 467 kts 244°
2026-04-23 12:00 48.28547 -60.77353 35916 ft 470 kts 244°
2026-04-23 12:00 48.26004 -60.86413 35925 ft 472 kts 244°
2026-04-23 12:01 48.23455 -60.95424 35936 ft 473 kts 244°
2026-04-23 12:01 48.20882 -61.04529 35923 ft 475 kts 244°
2026-04-23 12:02 48.18293 -61.13670 35928 ft 478 kts 244°
2026-04-23 12:02 48.15703 -61.22852 35931 ft 480 kts 245°
2026-04-23 12:03 48.13211 -61.32094 35931 ft 483 kts 246°
2026-04-23 12:03 48.10822 -61.41503 35942 ft 485 kts 247°
2026-04-23 12:04 48.08398 -61.50902 35942 ft 486 kts 247°
2026-04-23 12:04 48.05976 -61.60260 35933 ft 488 kts 246°
2026-04-23 12:05 48.03556 -61.69621 35940 ft 489 kts 246°
2026-04-23 12:05 48.01463 -61.77620 35944 ft 490 kts 246°
2026-04-23 12:06 47.99043 -61.86880 35949 ft 491 kts 247°
2026-04-23 12:06 47.95270 -62.01226 35947 ft 492 kts 247°
2026-04-23 12:07 47.92765 -62.10695 35946 ft 492 kts 246°
2026-04-23 12:07 47.90249 -62.20177 35944 ft 492 kts 246°
2026-04-23 12:08 47.87722 -62.29652 35955 ft 492 kts 247°
2026-04-23 12:08 47.85194 -62.39111 35951 ft 492 kts 247°
2026-04-23 12:09 47.82671 -62.48495 35954 ft 491 kts 247°
2026-04-23 12:09 47.80128 -62.57927 35955 ft 491 kts 247°
2026-04-23 12:10 47.77578 -62.67337 35953 ft 491 kts 246°
2026-04-23 12:10 47.75022 -62.76740 35955 ft 490 kts 246°
2026-04-23 12:11 47.72460 -62.86125 35952 ft 490 kts 246°
2026-04-23 12:11 47.69906 -62.95434 35954 ft 490 kts 246°
2026-04-23 12:12 47.67332 -63.04799 35956 ft 490 kts 246°
2026-04-23 12:12 47.64747 -63.14155 35956 ft 490 kts 246°
2026-04-23 12:13 47.62296 -63.23578 35960 ft 490 kts 252°
2026-04-23 12:13 47.60667 -63.33316 35965 ft 490 kts 256°
2026-04-23 12:14 47.59020 -63.43102 35963 ft 489 kts 254°
2026-04-23 12:14 47.57260 -63.52840 35959 ft 489 kts 254°
2026-04-23 12:15 47.55498 -63.62564 35961 ft 489 kts 254°
2026-04-23 12:15 47.53729 -63.72270 35969 ft 489 kts 254°
2026-04-23 12:16 47.51969 -63.81900 35964 ft 488 kts 254°
2026-04-23 12:16 47.50185 -63.91593 35962 ft 488 kts 254°
2026-04-23 12:17 47.48394 -64.01263 35959 ft 487 kts 254°
2026-04-23 12:17 47.46615 -64.10824 35959 ft 487 kts 254°
2026-04-23 12:18 47.45959 -64.14346 35964 ft 487 kts 254°
2026-04-23 12:19 47.45145 -64.18696 35962 ft 486 kts 254°
2026-04-23 12:19 47.43338 -64.28329 35961 ft 486 kts 254°
2026-04-23 12:20 47.41527 -64.37931 35960 ft 485 kts 254°
2026-04-23 12:20 47.39709 -64.47521 35957 ft 485 kts 254°
2026-04-23 12:21 47.37885 -64.57089 35956 ft 484 kts 254°
2026-04-23 12:21 47.36054 -64.66646 35956 ft 484 kts 254°
2026-04-23 12:22 47.34228 -64.76124 35954 ft 484 kts 254°
2026-04-23 12:22 47.32385 -64.85650 35960 ft 483 kts 255°
2026-04-23 12:23 47.30539 -64.95159 35961 ft 483 kts 254°
2026-04-23 12:23 47.28681 -65.04663 35960 ft 482 kts 254°
2026-04-23 12:24 47.26834 -65.14074 35965 ft 482 kts 254°
2026-04-23 12:24 47.24963 -65.23549 35965 ft 482 kts 254°
2026-04-23 12:25 47.23085 -65.33005 35972 ft 481 kts 254°
2026-04-23 12:25 47.21204 -65.42455 35975 ft 481 kts 254°
2026-04-23 12:26 47.19332 -65.51815 35976 ft 481 kts 254°
2026-04-23 12:26 47.17436 -65.61238 35978 ft 480 kts 254°
2026-04-23 12:27 47.15532 -65.70645 35978 ft 480 kts 254°
2026-04-23 12:27 47.13623 -65.80044 35975 ft 480 kts 254°
2026-04-23 12:28 47.11720 -65.89370 35974 ft 480 kts 254°
2026-04-23 12:28 47.09799 -65.98741 35967 ft 479 kts 254°
2026-04-23 12:29 47.07870 -66.08104 35965 ft 479 kts 254°
2026-04-23 12:29 47.05934 -66.17457 35956 ft 479 kts 254°
2026-04-23 12:30 47.04006 -66.26738 35960 ft 479 kts 254°
2026-04-23 12:30 47.02057 -66.36062 35951 ft 479 kts 254°
2026-04-23 12:31 47.00101 -66.45379 35951 ft 478 kts 255°
2026-04-23 12:31 46.98153 -66.54621 35947 ft 478 kts 254°
2026-04-23 12:32 46.96175 -66.63933 35944 ft 478 kts 254°
2026-04-23 12:32 46.94220 -66.73154 35944 ft 478 kts 254°
2026-04-23 12:33 46.92232 -66.82460 34449 ft 476 kts 253°
2026-04-23 12:33 46.91269 -66.86978 36642 ft 458 kts 252°
2026-04-23 12:33 46.90272 -66.91411 36646 ft 461 kts 253°
2026-04-23 12:34 46.89244 -66.95960 36240 ft 472 kts 254°
2026-04-23 12:34 46.88261 -67.00491 36081 ft 476 kts 255°
2026-04-23 12:34 46.86279 -67.09741 35974 ft 478 kts 255°
2026-04-23 12:35 46.84314 -67.19011 35949 ft 478 kts 255°
2026-04-23 12:35 46.82334 -67.28273 35941 ft 478 kts 255°
2026-04-23 12:36 46.80364 -67.37465 35936 ft 477 kts 255°
2026-04-23 12:36 46.78375 -67.46697 35931 ft 477 kts 255°
2026-04-23 12:37 46.76383 -67.55912 35929 ft 476 kts 255°
2026-04-23 12:37 46.74378 -67.65118 35934 ft 476 kts 255°
2026-04-23 12:38 46.72374 -67.74310 35934 ft 476 kts 255°
2026-04-23 12:38 46.70372 -67.83441 35924 ft 476 kts 255°
2026-04-23 12:39 46.68349 -67.92621 35926 ft 476 kts 255°
2026-04-23 12:39 46.66320 -68.01788 35917 ft 475 kts 255°
2026-04-23 12:40 46.64289 -68.10943 35935 ft 475 kts 255°
2026-04-23 12:40 46.62261 -68.20032 35936 ft 475 kts 255°
2026-04-23 12:41 46.60210 -68.29175 35942 ft 475 kts 255°
2026-04-23 12:41 46.58157 -68.38305 35954 ft 475 kts 255°
2026-04-23 12:42 46.56096 -68.47426 35968 ft 475 kts 255°
2026-04-23 12:42 46.54028 -68.56524 35951 ft 474 kts 255°
2026-04-23 12:43 46.51974 -68.65544 35959 ft 474 kts 255°
2026-04-23 12:43 46.49898 -68.74621 35976 ft 474 kts 255°
2026-04-23 12:44 46.47811 -68.83698 35948 ft 474 kts 255°
2026-04-23 12:44 46.45717 -68.92758 35934 ft 474 kts 255°
2026-04-23 12:45 46.43620 -69.01808 35945 ft 473 kts 255°
2026-04-23 12:45 46.41532 -69.10785 35938 ft 473 kts 255°
2026-04-23 12:46 46.39420 -69.19807 35936 ft 473 kts 255°
2026-04-23 12:46 46.37310 -69.28814 35931 ft 473 kts 255°
2026-04-23 12:47 46.35202 -69.37752 35931 ft 472 kts 255°
2026-04-23 12:47 46.33083 -69.46693 35920 ft 472 kts 255°
2026-04-23 12:48 46.30939 -69.55738 35927 ft 471 kts 255°
2026-04-23 12:48 46.28837 -69.64565 35914 ft 471 kts 256°
2026-04-23 12:49 46.26660 -69.73632 35920 ft 471 kts 255°
2026-04-23 12:49 46.24525 -69.82501 35912 ft 471 kts 255°
2026-04-23 12:50 46.22371 -69.91436 35922 ft 471 kts 255°
2026-04-23 12:50 46.20207 -70.00352 35919 ft 470 kts 256°
2026-04-23 12:51 46.18042 -70.09253 35921 ft 470 kts 256°
2026-04-23 12:51 46.15885 -70.18083 35918 ft 470 kts 256°
2026-04-23 12:52 46.13704 -70.26968 35918 ft 470 kts 256°
2026-04-23 12:52 46.11519 -70.35839 35928 ft 470 kts 256°
2026-04-23 12:53 46.09326 -70.44705 35914 ft 470 kts 256°
2026-04-23 12:53 46.07143 -70.53500 35924 ft 469 kts 256°
2026-04-23 12:54 46.04943 -70.62329 35922 ft 468 kts 256°
2026-04-23 12:54 46.02735 -70.71163 35487 ft 469 kts 256°
2026-04-23 12:55 46.01633 -70.75543 35026 ft 462 kts 257°
2026-04-23 12:55 46.00546 -70.79861 34583 ft 456 kts 257°
2026-04-23 12:55 45.99643 -70.84169 34134 ft 442 kts 265°
2026-04-23 12:55 45.99170 -70.88426 33649 ft 434 kts 269°
2026-04-23 12:56 45.98846 -70.92701 33124 ft 426 kts 273°
2026-04-23 12:56 45.98728 -70.96916 32610 ft 419 kts 276°
2026-04-23 12:56 45.98695 -71.01081 32081 ft 414 kts 277°
2026-04-23 12:56 45.98651 -71.05195 31589 ft 410 kts 277°
2026-04-23 12:57 45.98589 -71.09271 31074 ft 406 kts 278°
2026-04-23 12:57 45.98505 -71.13298 30593 ft 401 kts 278°
2026-04-23 12:57 45.98416 -71.17282 30144 ft 396 kts 279°
2026-04-23 12:57 45.98323 -71.21227 29599 ft 392 kts 279°
2026-04-23 12:58 45.98238 -71.25070 29032 ft 388 kts 279°
2026-04-23 12:58 45.98148 -71.28938 28479 ft 386 kts 279°
2026-04-23 12:58 45.98059 -71.32777 27951 ft 383 kts 279°
2026-04-23 12:58 45.97970 -71.36590 27443 ft 381 kts 278°
2026-04-23 12:59 45.97878 -71.40379 26919 ft 378 kts 278°
2026-04-23 12:59 45.97784 -71.44142 26413 ft 376 kts 278°
2026-04-23 12:59 45.97694 -71.47886 25923 ft 374 kts 278°
2026-04-23 12:59 45.97597 -71.51608 25392 ft 372 kts 279°
2026-04-23 13:00 45.97479 -71.55316 24909 ft 370 kts 278°
2026-04-23 13:00 45.97358 -71.58999 24432 ft 367 kts 279°
2026-04-23 13:00 45.97254 -71.62604 23985 ft 365 kts 279°
2026-04-23 13:00 45.97159 -71.66245 23524 ft 363 kts 279°
2026-04-23 13:01 45.97069 -71.69869 22975 ft 362 kts 279°
2026-04-23 13:01 45.96982 -71.73477 22414 ft 361 kts 278°
2026-04-23 13:01 45.96894 -71.77078 21873 ft 360 kts 278°
2026-04-23 13:01 45.96801 -71.80676 21328 ft 360 kts 277°
2026-04-23 13:02 45.96714 -71.84275 20801 ft 360 kts 277°
2026-04-23 13:02 45.96623 -71.87858 20449 ft 356 kts 276°
2026-04-23 13:02 45.96526 -71.91391 20202 ft 351 kts 276°
2026-04-23 13:02 45.96419 -71.94852 19922 ft 352 kts 276°
2026-04-23 13:03 45.96314 -71.98354 19679 ft 350 kts 276°
2026-04-23 13:03 45.96212 -72.01850 19444 ft 350 kts 276°
2026-04-23 13:03 45.96110 -72.05339 19201 ft 350 kts 276°
2026-04-23 13:03 45.96001 -72.08830 18941 ft 349 kts 276°
2026-04-23 13:04 45.95892 -72.12314 18704 ft 349 kts 276°
2026-04-23 13:04 45.95787 -72.15793 18464 ft 348 kts 276°
2026-04-23 13:04 45.95681 -72.19264 18223 ft 347 kts 275°
2026-04-23 13:04 45.95576 -72.22677 17944 ft 346 kts 275°
2026-04-23 13:05 45.95464 -72.26123 17662 ft 345 kts 275°
2026-04-23 13:05 45.95357 -72.29561 17387 ft 344 kts 275°
2026-04-23 13:05 45.95247 -72.32997 17113 ft 344 kts 275°
2026-04-23 13:05 45.95134 -72.36426 16818 ft 343 kts 275°
2026-04-23 13:06 45.94007 -72.43205 16287 ft 361 kts 256°
2026-04-23 13:06 45.92912 -72.46473 16035 ft 365 kts 251°
2026-04-23 13:06 45.91689 -72.49673 15778 ft 366 kts 249°
2026-04-23 13:07 45.90471 -72.52820 15525 ft 365 kts 249°
2026-04-23 13:07 45.89242 -72.56001 15272 ft 364 kts 249°
2026-04-23 13:07 45.88018 -72.59160 15022 ft 359 kts 249°
2026-04-23 13:07 45.86836 -72.62297 14766 ft 355 kts 249°
2026-04-23 13:08 45.85674 -72.65401 14517 ft 352 kts 249°
2026-04-23 13:08 45.84520 -72.68475 14256 ft 349 kts 249°
2026-04-23 13:08 45.83374 -72.71533 14005 ft 346 kts 249°
2026-04-23 13:08 45.82240 -72.74559 13740 ft 344 kts 249°
2026-04-23 13:09 45.81110 -72.77560 13465 ft 342 kts 249°
2026-04-23 13:09 45.79985 -72.80547 13197 ft 340 kts 249°
2026-04-23 13:09 45.78869 -72.83520 12927 ft 338 kts 248°
2026-04-23 13:09 45.77768 -72.86433 12659 ft 336 kts 248°
2026-04-23 13:10 45.76663 -72.89349 12366 ft 327 kts 249°
2026-04-23 13:10 45.75603 -72.92151 12092 ft 314 kts 249°
2026-04-23 13:10 45.74580 -72.94857 11814 ft 304 kts 250°
2026-04-23 13:10 45.73587 -72.97478 11537 ft 296 kts 250°
2026-04-23 13:11 45.72616 -73.00035 11269 ft 289 kts 249°
2026-04-23 13:11 45.71815 -73.02594 10988 ft 273 kts 263°
2026-04-23 13:11 45.71439 -73.05202 10727 ft 264 kts 269°
2026-04-23 13:11 45.71190 -73.07778 10467 ft 260 kts 270°
2026-04-23 13:12 45.70970 -73.10305 10209 ft 258 kts 270°
2026-04-23 13:12 45.70586 -73.12822 9927 ft 266 kts 255°
2026-04-23 13:12 45.69733 -73.15195 9655 ft 269 kts 248°
2026-04-23 13:12 45.68743 -73.17474 9388 ft 269 kts 245°
2026-04-23 13:13 45.67714 -73.19708 9119 ft 268 kts 244°
2026-04-23 13:13 45.66686 -73.21926 8857 ft 267 kts 244°
2026-04-23 13:13 45.65664 -73.24128 8586 ft 265 kts 244°
2026-04-23 13:13 45.64675 -73.26340 8319 ft 263 kts 245°
2026-04-23 13:14 45.63703 -73.28547 8050 ft 262 kts 245°
2026-04-23 13:14 45.62750 -73.30710 7790 ft 260 kts 245°
2026-04-23 13:14 45.61788 -73.32885 7526 ft 258 kts 245°
2026-04-23 13:14 45.60830 -73.35049 7281 ft 257 kts 245°
2026-04-23 13:15 45.59881 -73.37200 7024 ft 255 kts 244°
2026-04-23 13:15 45.58933 -73.39337 6755 ft 254 kts 244°
2026-04-23 13:15 45.57991 -73.41459 6500 ft 252 kts 245°
2026-04-23 13:15 45.56935 -73.43469 6230 ft 254 kts 234°
2026-04-23 13:16 45.55672 -73.45215 5962 ft 252 kts 228°
2026-04-23 13:16 45.54361 -73.46850 5685 ft 248 kts 227°
2026-04-23 13:16 45.53083 -73.48434 5417 ft 245 kts 227°
2026-04-23 13:16 45.51817 -73.50028 5147 ft 240 kts 229°
2026-04-23 13:17 45.50606 -73.51617 4919 ft 236 kts 229°
2026-04-23 13:17 45.49408 -73.53203 4667 ft 234 kts 229°
2026-04-23 13:17 45.48214 -73.54773 4403 ft 233 kts 228°
2026-04-23 13:17 45.47029 -73.56335 4142 ft 231 kts 228°
2026-04-23 13:18 45.45858 -73.57875 3938 ft 227 kts 227°
2026-04-23 13:18 45.44695 -73.59404 3716 ft 227 kts 227°
2026-04-23 13:18 45.43538 -73.60919 3475 ft 225 kts 227°
2026-04-23 13:18 45.42395 -73.62424 3234 ft 223 kts 226°
2026-04-23 13:19 45.41287 -73.63877 3089 ft 216 kts 226°
2026-04-23 13:19 45.40190 -73.65312 3031 ft 214 kts 226°
2026-04-23 13:19 45.39096 -73.66744 3008 ft 213 kts 226°
2026-04-23 13:19 45.38010 -73.68163 2993 ft 211 kts 226°
2026-04-23 13:20 45.36937 -73.69573 2995 ft 209 kts 226°
2026-04-23 13:20 45.35865 -73.70969 2997 ft 208 kts 226°
2026-04-23 13:20 45.34800 -73.72361 2995 ft 207 kts 226°
2026-04-23 13:20 45.33746 -73.73748 2994 ft 206 kts 226°
2026-04-23 13:21 45.32703 -73.75108 2996 ft 206 kts 226°
2026-04-23 13:21 45.31649 -73.76481 3002 ft 205 kts 226°
2026-04-23 13:21 45.30600 -73.77853 2998 ft 205 kts 226°
2026-04-23 13:21 45.29553 -73.79225 2990 ft 205 kts 226°
2026-04-23 13:22 45.28518 -73.80575 2976 ft 199 kts 226°
2026-04-23 13:22 45.27506 -73.81890 2971 ft 195 kts 225°
2026-04-23 13:22 45.26509 -73.83181 2971 ft 193 kts 226°
2026-04-23 13:22 45.25526 -73.84475 2983 ft 192 kts 228°
2026-04-23 13:23 45.24946 -73.86092 2944 ft 183 kts 271°
2026-04-23 13:23 45.25272 -73.87749 2977 ft 176 kts 296°
2026-04-23 13:23 45.25874 -73.89243 3005 ft 172 kts 308°
2026-04-23 13:23 45.26607 -73.90498 3040 ft 160 kts 314°
2026-04-23 13:24 45.27347 -73.91614 3058 ft 154 kts 315°
2026-04-23 13:24 45.28096 -73.92701 3052 ft 154 kts 316°
2026-04-23 13:24 45.28843 -73.93787 3025 ft 153 kts 315°
2026-04-23 13:24 45.29571 -73.94877 3010 ft 152 kts 314°
2026-04-23 13:25 45.30391 -73.95775 2960 ft 151 kts 344°
2026-04-23 13:25 45.31388 -73.95446 2979 ft 151 kts 25°
2026-04-23 13:25 45.32255 -73.94633 3016 ft 152 kts 34°
2026-04-23 13:25 45.33077 -73.93651 3030 ft 158 kts 38°
2026-04-23 13:26 45.33892 -73.92574 3032 ft 162 kts 40°
2026-04-23 13:26 45.34710 -73.91454 3024 ft 165 kts 40°
2026-04-23 13:26 45.35524 -73.90335 3011 ft 160 kts 40°
2026-04-23 13:26 45.36326 -73.89259 3002 ft 157 kts 39°
2026-04-23 13:27 45.37125 -73.88206 2997 ft 156 kts 38°
2026-04-23 13:27 45.37903 -73.87152 2866 ft 154 kts 40°
2026-04-23 13:27 45.38673 -73.86105 2634 ft 156 kts 39°
2026-04-23 13:27 45.39449 -73.85048 2362 ft 153 kts 40°
2026-04-23 13:28 45.40224 -73.84055 2094 ft 145 kts 37°
2026-04-23 13:28 45.40968 -73.83137 1791 ft 139 kts 37°
2026-04-23 13:28 45.41708 -73.82242 1474 ft 141 kts 37°
2026-04-23 13:28 45.42431 -73.81307 1216 ft 140 kts 39°
2026-04-23 13:29 45.43159 -73.80358 1053 ft 143 kts 38°
2026-04-23 13:29 45.43866 -73.79443 935 ft 130 kts 40°
2026-04-23 13:29 45.44527 -73.78566 667 ft 132 kts 40°
2026-04-23 13:29 45.45207 -73.77677 462 ft 132 kts 40°
2026-04-23 13:30 45.45835 -73.76856 246 ft 121 kts 41°
2026-04-23 13:30 45.46404 -73.76110 107 ft 94 kts 40°
2026-04-23 13:30 45.46701 -73.75728 109 ft 24 kts 49°
2026-04-23 13:30 45.46671 -73.75615 108 ft 14 kts 178°
2026-04-23 13:31 45.46570 -73.75639 110 ft 15 kts 193°
2026-04-23 13:31 45.46461 -73.75674 109 ft 17 kts 192°
2026-04-23 13:31 45.46331 -73.75715 104 ft 21 kts 192°
2026-04-23 13:31 45.46185 -73.75722 104 ft 20 kts 177°
2026-04-23 13:32 45.46071 -73.75695 102 ft 17 kts 132°
2026-04-23 13:32 45.46063 -73.75543 104 ft 16 kts 88°
2026-04-23 13:32 45.46063 -73.75390 105 ft 16 kts 107°
2026-04-23 13:32 45.46014 -73.75250 106 ft 16 kts 114°
2026-04-23 13:33 45.46008 -73.75093 108 ft 16 kts 86°
2026-04-23 13:33 45.45981 -73.74934 106 ft 18 kts 102°
2026-04-23 13:33 45.45969 -73.74758 107 ft 17 kts 111°
2026-04-23 13:33 45.45953 -73.74633 107 ft 7 kts 80°
2026-04-23 13:34 45.45958 -73.74580 108 ft 4 kts 103°
2026-04-23 13:34 45.45937 -73.74554 108 ft 5 kts 164°
2026-04-23 13:34 45.45894 -73.74546 105 ft 1 kts 176°
2026-04-23 13:34 45.45889 -73.74546 105 ft 0 kts 179°